Dewpoint
13 13 15 15 15 15 15 15 15 15 15 15 15 15 14 14 14 14 14 14 14 14 14 15 15 15 15 13 13 13 11 11 12 11 10 5 2 5 4 2 4 4
14 14 15 15 15 15 15 15 14 15 14 14 14 14 14 15 15 15 15 14 14 15 15 15 14 14 14 12 13 12 10 10 11 10 10 3 -3 2 3 4 5 5
15 15 15 15 15 15 14 14 14 14 14 14 15 14 14 15 15 15 15 14 15 15 14 15 14 14 13 12 12 12 10 10 11 10 6 -4 -6 2 4 5 6 6
14 14 14 15 15 14 14 14 14 14 14 15 15 15 15 14 15 15 15 15 15 14 14 14 14 14 13 11 11 11 10 9 10 8 -2 -13 -6 1 5 6 5 4
14 14 14 15 14 14 14 14 14 14 14 14 15 15 15 14 14 14 15 15 14 14 14 14 14 13 12 11 10 9 7 9 10 4 -7 -8 -7 -4 3 5 -1 -8
14 14 14 14 14 14 14 14 14 14 14 14 14 14 14 15 14 14 14 15 14 14 14 14 13 13 12 11 10 6 3 8 9 3 -2 1 -1 -5 1 2 -8 -27
14 14 14 14 14 13 13 14 14 14 14 14 15 14 14 15 15 15 14 14 15 14 14 13 12 12 11 11 10 6 5 8 8 4 5 6 5 4 3 3 -3 -18
14 15 14 14 13 13 13 14 14 14 15 14 14 14 15 15 15 15 15 14 15 14 13 13 12 11 11 10 10 8 8 10 7 4 6 7 7 8 6 6 5 -1
14 15 14 14 14 14 14 15 15 15 15 14 14 14 15 15 15 15 15 15 14 13 13 12 11 11 11 10 10 10 10 11 7 2 6 7 7 8 7 8 9 5
14 15 14 14 14 14 14 15 15 14 14 14 14 14 15 15 15 15 15 15 14 12 12 12 11 11 11 10 10 10 9 10 7 5 7 8 8 8 8 9 8 5
15 15 14 14 14 14 14 14 13 13 13 13 13 14 15 14 14 15 15 14 13 12 12 11 11 11 11 9 9 9 8 7 7 8 9 8 9 9 9 9 6 3
15 15 15 14 14 13 12 11 12 11 12 12 12 13 14 14 14 15 14 13 13 12 11 10 11 11 10 10 10 10 9 6 5 8 9 10 10 9 8 8 4 2
15 15 14 13 12 12 11 11 11 11 11 11 11 12 13 14 14 14 14 13 12 12 11 11 12 12 11 10 10 10 10 7 -0 1 8 11 10 8 7 7 5 6
15 14 12 12 12 11 10 11 11 11 11 12 12 13 13 14 14 14 13 13 12 12 12 12 12 12 11 11 11 11 10 6 -11 -15 5 11 9 6 7 8 9 9
15 13 12 12 12 10 10 11 11 11 12 12 13 13 13 13 14 14 13 13 12 12 12 12 12 11 11 11 11 9 4 -4 -31 -19 4 9 7 7 9 10 10 10
15 13 13 12 11 11 11 11 12 12 13 13 13 13 13 14 14 14 13 13 13 12 12 12 11 11 11 10 9 3 -11 -22 -28 -10 3 7 7 8 10 10 9 8
14 13 13 12 12 12 12 12 12 13 13 14 14 13 13 14 14 14 13 13 13 13 12 12 11 11 10 7 2 -8 -26 -22 -15 -4 5 7 8 9 10 10 9 8
14 13 14 13 12 12 12 13 13 13 14 14 15 14 13 14 13 13 13 13 13 12 12 11 11 10 7 0 -10 -26 -24 -12 -6 2 7 9 9 10 10 10 10 9
13 13 14 14 14 13 13 14 14 14 13 14 15 14 13 13 13 13 13 12 11 11 11 11 10 8 4 -5 -22 -24 -9 -3 0 6 9 9 9 10 10 10 10 10
13 13 14 14 14 14 14 15 14 14 14 14 14 13 13 13 12 12 12 11 9 10 10 10 9 7 0 -11 -20 -9 -1 -1 1 7 10 10 9 10 10 10 10 10
13 14 14 14 15 15 15 14 14 14 14 13 13 13 13 13 11 11 11 10 10 10 11 10 8 2 -7 -16 -9 -1 1 -1 -1 3 8 9 10 10 9 8 8 8
12 14 15 15 15 15 15 14 14 14 14 13 13 13 13 11 10 9 9 9 7 7 7 4 -0 -5 -12 -10 -2 1 -0 -1 -3 -4 -1 4 7 6 1 0 6 8
12 14 14 15 16 16 15 14 14 15 14 13 13 12 10 9 10 10 9 6 1 -5 -5 -2 -2 -5 -7 -3 1 1 -0 -1 -3 -5 -6 -6 -3 -4 -10 -3 7 9
12 13 14 15 16 15 14 14 14 15 14 12 11 11 9 8 11 11 9 6 -2 -22 -10 3 4 -1 -3 1 2 0 0 -1 -3 -4 -7 -12 -12 -11 -9 1 8 9
13 14 14 15 16 15 14 14 14 15 14 10 9 11 11 8 10 11 8 5 -3 -22 -12 -0 0 -2 0 3 1 1 1 -1 -3 -5 -10 -14 -11 -9 -4 4 8 9
14 13 14 15 15 14 14 14 14 15 13 7 5 9 9 6 6 7 4 -3 -12 -14 -6 -2 -2 0 3 3 2 3 2 -0 -2 -6 -14 -11 -7 -5 1 6 9 8
Wind_Speed
13 13 12 12 14 15 15 14 13 13 12 12 12 12 13 14 15 13 10 8 8 7 8 8 8 7 6 7 8 8 8 6 8 11 15 19 14 11 12 12 12 11
12 12 12 13 15 15 15 13 13 13 12 12 12 12 13 13 12 10 6 5 6 7 7 8 7 6 5 8 9 8 9 7 9 13 17 18 13 11 12 12 12 11
12 12 13 14 14 14 13 13 14 13 12 13 11 10 10 10 9 8 5 4 6 8 7 7 6 6 6 8 9 8 9 9 12 15 17 15 11 11 12 12 12 12
11 13 14 14 13 13 12 13 13 11 11 12 10 10 11 10 9 8 6 5 5 6 8 7 6 7 7 5 6 6 9 11 14 15 15 12 9 10 11 12 12 10
12 14 14 13 12 11 11 12 12 11 11 11 10 10 11 10 9 9 8 7 6 7 9 8 7 8 8 6 3 1 6 10 15 16 13 12 10 10 10 11 13 11
13 13 13 12 11 11 11 12 11 11 11 10 10 8 7 8 7 7 7 7 8 7 5 4 7 7 6 6 5 5 6 8 14 15 13 13 13 13 12 12 14 12
11 12 12 12 12 12 11 11 11 11 10 10 9 8 8 8 7 6 5 5 5 5 5 5 6 4 1 4 8 8 7 8 13 13 13 14 14 16 15 14 15 14
11 12 12 11 12 12 12 11 11 11 11 9 9 9 8 7 6 5 4 3 2 3 6 7 5 3 3 5 9 9 9 9 12 12 12 13 13 14 15 15 16 16
12 12 11 11 11 10 11 11 9 9 8 7 8 8 7 5 5 4 5 4 4 6 7 5 4 5 5 7 9 11 11 10 13 13 12 12 12 12 14 14 14 15
12 11 11 11 9 8 8 8 6 6 6 6 7 6 5 5 4 4 5 5 6 8 7 6 6 5 5 7 7 8 9 11 14 13 12 11 11 12 13 12 14 14
11 12 10 7 6 5 6 7 8 9 9 9 8 5 4 5 5 4 4 5 7 6 3 3 4 2 4 6 7 6 9 13 15 12 11 11 10 12 11 12 14 13
10 10 6 3 4 6 8 9 10 11 11 10 9 7 5 4 5 5 4 5 7 5 2 4 4 4 5 5 5 6 11 16 15 10 10 10 10 11 10 11 13 12
8 5 3 4 7 8 8 10 11 12 11 11 11 9 4 4 6 5 4 6 5 3 4 6 5 4 3 1 4 9 14 18 16 11 8 9 11 11 9 10 13 13
6 2 2 5 6 7 9 10 11 12 12 13 12 8 4 5 5 3 4 5 4 3 4 3 1 2 1 4 9 14 17 18 17 11 7 8 11 10 9 11 12 12
4 0 3 4 6 7 8 9 10 11 12 12 10 7 5 4 4 4 4 4 3 3 1 2 2 3 6 9 12 17 18 17 15 10 6 8 9 9 10 10 10 10
4 1 2 3 5 7 8 8 10 11 12 11 8 6 5 5 4 4 3 2 3 3 2 5 5 6 10 12 15 18 17 15 13 8 6 7 8 9 10 9 10 12
4 2 1 2 5 7 8 9 10 12 12 9 6 5 4 5 5 5 3 4 4 0 4 5 7 9 12 15 17 16 15 14 11 7 7 8 8 9 10 10 13 15
5 3 2 2 5 7 8 9 10 12 12 9 5 4 4 5 4 4 4 4 3 3 6 6 8 11 14 16 16 15 14 12 8 7 9 9 9 10 11 12 15 16
5 5 3 1 4 6 8 9 9 11 12 8 5 4 4 4 4 3 3 3 2 4 7 7 10 13 14 15 15 14 12 8 6 8 9 9 10 11 12 13 15 16
6 5 4 2 4 5 6 8 9 11 10 6 4 5 4 3 2 3 2 3 3 5 8 9 11 13 13 14 14 11 8 7 7 7 8 8 10 11 12 14 16 16
6 6 5 4 4 4 5 7 10 10 7 5 5 5 3 1 1 2 2 4 4 4 8 9 11 12 13 13 11 9 8 8 8 7 6 7 10 11 14 15 15 15
7 7 6 4 3 3 4 7 9 8 5 6 5 1 2 2 1 1 1 1 0 3 8 10 11 13 13 11 9 9 9 9 9 9 8 8 10 14 16 16 14 14
8 8 7 5 3 3 4 7 8 6 4 4 1 4 4 2 2 4 5 7 6 4 5 9 12 12 12 10 10 10 11 10 11 12 12 12 14 16 17 15 14 14
7 8 7 6 4 4 5 8 6 3 1 1 3 6 5 3 3 7 8 10 10 7 3 5 10 11 10 9 11 12 12 12 13 14 15 16 17 17 17 15 13 16
7 8 7 6 5 5 6 7 5 2 3 2 4 4 2 1 1 5 7 9 11 8 4 4 8 8 8 10 12 13 14 15 16 17 18 19 18 18 18 16 13 16
7 8 8 6 5 5 6 5 2 2 5 3 1 2 6 5 4 6 8 8 8 8 6 5 6 6 8 11 13 16 18 18 18 19 20 20 19 19 19 16 13 14
Wind_Direction
85 81 76 72 75 73 66 63 62 66 70 67 67 76 82 78 74 75 73 79 80 66 73 73 66 76 48 40 55 11 352 19 356 341 345 348 358 4 353 358 3 355
87 81 76 74 74 72 70 70 69 69 69 66 65 72 84 86 81 86 89 73 73 70 69 68 61 60 51 61 58 5 355 12 341 332 338 342 356 4 359 4 0 356
83 82 81 78 75 71 66 67 69 65 58 60 65 67 73 83 91 105 107 49 60 76 74 73 63 45 44 69 67 30 10 356 333 334 339 344 1 8 5 5 358 358
83 85 85 79 71 69 66 63 65 64 59 59 56 47 48 58 66 69 65 46 53 75 70 62 57 40 26 53 82 55 21 356 335 336 345 354 7 14 12 3 351 349
78 75 72 67 64 67 67 65 63 62 62 59 54 48 47 54 55 52 56 48 44 72 79 62 50 38 19 27 67 41 28 5 334 335 357 7 8 17 16 356 344 343
68 66 63 63 68 69 67 65 61 60 59 56 57 55 52 57 55 59 74 67 54 72 90 70 65 64 37 24 360 338 30 13 334 341 9 12 6 13 14 357 351 355
78 76 70 66 68 68 67 65 61 59 54 51 52 44 43 53 47 47 75 84 77 74 59 48 67 90 74 353 345 350 34 16 343 357 15 7 1 2 2 355 350 359
90 83 78 75 72 68 65 60 57 57 51 47 50 42 36 42 40 36 54 76 89 74 67 65 62 55 4 359 2 12 33 17 356 8 14 5 358 350 350 348 343 351
91 85 83 79 71 67 66 62 58 64 61 50 55 53 39 40 46 36 42 62 50 43 61 71 57 42 21 23 28 25 24 7 357 7 9 4 358 342 341 342 335 339
91 82 77 72 66 64 69 67 54 52 51 38 42 53 44 40 43 32 45 70 63 53 54 44 41 43 21 26 35 30 18 355 353 1 1 359 349 335 337 336 329 335
88 79 75 82 90 73 54 50 36 22 23 21 18 28 34 30 36 48 65 76 75 79 85 41 37 336 330 9 26 23 4 351 352 352 349 351 338 330 336 331 330 343
87 84 84 90 80 59 40 36 29 17 18 18 12 18 24 26 41 53 68 79 82 90 68 39 26 327 338 15 18 354 341 342 346 339 339 343 329 331 340 331 339 360
95 101 97 55 46 42 29 26 25 17 15 14 13 20 32 55 56 41 52 85 91 72 31 23 24 34 52 42 316 323 330 336 335 326 336 339 326 336 347 337 349 6
125 125 54 44 33 22 17 18 18 13 12 12 13 21 42 75 81 59 62 86 78 45 30 4 15 118 213 280 302 316 323 326 324 325 345 336 328 346 354 343 352 359
156 110 27 30 16 9 8 10 10 9 11 13 14 25 42 63 90 91 91 111 98 73 85 255 243 245 275 292 305 314 317 319 322 336 355 339 342 358 352 346 351 347
154 130 353 3 358 354 354 358 2 3 7 12 15 24 38 46 64 75 77 94 91 99 218 256 277 289 296 303 310 315 319 323 329 342 2 0 0 355 344 346 345 341
155 188 280 331 335 341 348 350 356 360 359 5 13 15 28 47 64 72 55 41 57 118 255 277 295 303 309 314 318 320 324 331 337 357 24 16 357 344 344 343 337 339
172 212 241 307 322 331 338 341 357 1 351 354 9 15 34 41 45 72 81 56 34 297 286 297 303 308 315 318 321 327 332 339 352 19 25 8 347 346 345 336 334 338
197 222 230 286 317 322 329 339 359 355 343 352 12 16 46 43 17 34 75 67 31 297 294 305 309 312 317 320 327 337 342 349 7 18 12 355 345 345 338 332 333 333
218 232 239 264 295 310 327 340 352 347 342 360 18 16 41 55 23 22 20 36 31 311 305 311 310 313 321 327 336 347 352 355 8 16 8 349 341 338 333 332 331 331
228 239 248 261 282 308 331 338 342 344 352 22 31 29 35 15 23 45 35 52 58 327 309 305 306 319 332 338 345 355 357 355 1 9 4 350 341 334 331 331 331 335
228 237 250 262 286 312 328 334 337 341 6 37 41 2 275 295 359 15 320 344 6 295 301 303 314 332 341 346 353 357 356 356 360 1 358 352 344 335 332 336 341 340
228 235 248 259 272 295 315 328 341 359 27 49 348 281 297 331 319 301 314 324 327 332 318 310 324 340 347 353 359 358 357 357 358 358 355 353 347 338 339 351 353 337
230 234 243 253 261 276 306 325 347 22 17 356 337 335 358 42 338 322 330 331 335 359 13 311 319 338 353 2 3 360 358 356 357 357 354 352 346 340 348 2 354 333
231 232 238 246 261 283 307 327 353 352 293 336 40 19 9 110 337 314 313 317 327 346 357 302 312 340 7 12 6 3 2 358 357 356 353 350 346 346 353 1 352 338
231 232 237 242 260 287 308 327 344 291 296 319 88 227 255 264 276 287 299 314 329 341 343 332 339 8 21 14 7 4 1 358 356 354 351 348 348 351 354 353 349 341
Height
1531 1531 1531 1530 1531 1531 1531 1532 1532 1532 1532 1531 1532 1532 1532 1533 1533 1533 1534 1534 1534 1535 1535 1535 1535 1535 1535 1535 1535 1534 1534 1533 1532 1531 1530 1530 1529 1529 1528 1527 1527 1527
1532 1531 1532 1532 1532 1532 1533 1533 1533 1533 1533 1533 1533 1533 1534 1534 1534 1534 1535 1536 1535 1536 1536 1536 1535 1535 1535 1535 1535 1534 1533 1533 1532 1531 1530 1529 1528 1528 1527 1527 1527 1526
1533 1533 1533 1533 1533 1534 1535 1535 1535 1535 1535 1535 1534 1534 1535 1535 1535 1535 1536 1536 1535 1536 1536 1536 1536 1535 1535 1535 1535 1534 1533 1532 1531 1530 1530 1529 1528 1527 1527 1527 1527 1526
1534 1534 1534 1535 1535 1536 1536 1537 1537 1537 1536 1536 1535 1535 1536 1536 1536 1536 1536 1536 1536 1536 1536 1537 1536 1535 1535 1535 1534 1534 1533 1532 1531 1530 1530 1528 1527 1527 1527 1527 1526 1525
1535 1536 1536 1536 1537 1537 1538 1538 1538 1538 1538 1538 1537 1537 1537 1537 1537 1537 1537 1537 1536 1537 1537 1537 1537 1536 1535 1535 1534 1534 1534 1532 1530 1530 1529 1528 1528 1527 1527 1527 1525 1524
1537 1538 1538 1538 1539 1539 1539 1539 1539 1539 1539 1539 1539 1538 1538 1538 1538 1538 1538 1537 1537 1537 1537 1537 1537 1537 1535 1534 1533 1533 1534 1533 1531 1530 1529 1528 1528 1527 1527 1526 1525 1524
1539 1539 1539 1540 1540 1540 1540 1539 1539 1539 1539 1539 1539 1539 1539 1538 1538 1538 1538 1538 1538 1537 1537 1537 1536 1536 1535 1534 1533 1533 1533 1533 1531 1530 1530 1529 1529 1528 1527 1527 1526 1525
1539 1540 1540 1540 1540 1540 1540 1540 1539 1539 1539 1539 1539 1539 1539 1538 1538 1538 1538 1537 1537 1537 1537 1537 1536 1536 1535 1534 1534 1533 1533 1533 1532 1531 1530 1530 1530 1529 1528 1527 1526 1525
1540 1540 1540 1540 1540 1540 1540 1539 1539 1538 1538 1538 1538 1538 1538 1538 1537 1537 1537 1537 1537 1537 1537 1537 1536 1536 1535 1535 1534 1534 1533 1533 1532 1531 1530 1530 1530 1530 1528 1527 1526 1525
1541 1541 1541 1541 1540 1539 1539 1539 1538 1538 1538 1538 1538 1538 1537 1537 1537 1536 1537 1536 1536 1537 1537 1536 1536 1536 1535 1535 1534 1534 1534 1533 1532 1531 1530 1530 1530 1529 1528 1527 1526 1524
1541 1542 1542 1540 1539 1540 1539 1539 1539 1538 1539 1538 1538 1537 1537 1537 1537 1537 1536 1536 1536 1537 1537 1537 1536 1535 1535 1534 1534 1533 1533 1532 1531 1531 1530 1530 1530 1529 1528 1527 1525 1524
1542 1542 1541 1539 1540 1541 1540 1540 1539 1539 1539 1538 1538 1537 1537 1537 1536 1536 1536 1536 1537 1537 1536 1536 1536 1535 1534 1534 1533 1532 1532 1531 1531 1530 1530 1529 1529 1528 1527 1526 1524 1523
1543 1542 1540 1540 1541 1541 1541 1540 1540 1539 1539 1538 1538 1537 1536 1536 1536 1536 1536 1536 1536 1536 1536 1536 1536 1535 1534 1533 1532 1531 1531 1530 1530 1529 1529 1529 1528 1526 1526 1525 1524 1523
1543 1542 1541 1541 1542 1541 1541 1540 1540 1539 1539 1538 1537 1537 1536 1536 1537 1537 1536 1536 1536 1536 1536 1535 1534 1534 1533 1532 1531 1531 1530 1529 1528 1528 1527 1527 1526 1525 1525 1524 1523 1522
1543 1542 1542 1542 1542 1541 1541 1540 1540 1539 1539 1538 1537 1537 1537 1536 1536 1536 1536 1536 1536 1536 1535 1534 1534 1533 1533 1532 1531 1530 1529 1528 1527 1526 1525 1526 1525 1524 1524 1524 1523 1522
1544 1543 1543 1543 1542 1542 1541 1541 1541 1540 1540 1539 1538 1537 1537 1536 1536 1536 1536 1535 1535 1535 1534 1533 1533 1533 1532 1531 1530 1529 1528 1527 1525 1525 1524 1524 1524 1524 1523 1523 1522 1521
1543 1543 1543 1543 1543 1543 1543 1542 1542 1542 1542 1541 1540 1539 1538 1537 1537 1537 1536 1536 1535 1534 1534 1533 1533 1532 1531 1530 1529 1528 1526 1525 1524 1523 1523 1524 1524 1523 1523 1522 1521 1520
1543 1542 1543 1543 1543 1543 1543 1543 1544 1544 1544 1543 1542 1541 1540 1538 1538 1537 1537 1536 1535 1533 1533 1533 1532 1531 1530 1529 1528 1527 1525 1524 1523 1523 1523 1523 1523 1522 1522 1521 1520 1519
1542 1542 1543 1544 1544 1543 1544 1544 1545 1545 1543 1543 1542 1542 1541 1540 1539 1538 1537 1537 1535 1533 1533 1532 1531 1530 1529 1528 1527 1526 1525 1524 1523 1523 1523 1523 1523 1522 1522 1520 1519 1518
1542 1542 1543 1543 1543 1544 1544 1544 1544 1544 1542 1542 1542 1542 1542 1541 1540 1538 1537 1536 1535 1534 1533 1532 1531 1530 1529 1528 1526 1525 1525 1524 1523 1523 1523 1523 1523 1522 1521 1519 1518 1517
1541 1542 1542 1543 1543 1544 1544 1544 1543 1543 1542 1542 1542 1542 1542 1541 1540 1539 1537 1536 1536 1534 1533 1531 1530 1529 1528 1527 1526 1525 1525 1524 1523 1523 1522 1522 1522 1521 1520 1518 1517 1516
1541 1541 1542 1543 1543 1544 1543 1543 1542 1542 1542 1542 1542 1542 1542 1541 1540 1539 1537 1536 1535 1534 1532 1531 1530 1529 1528 1527 1526 1526 1525 1524 1523 1522 1522 1521 1520 1519 1518 1517 1515 1514
1540 1541 1541 1542 1543 1543 1542 1542 1542 1541 1541 1541 1541 1541 1540 1540 1540 1538 1536 1535 1535 1534 1533 1530 1529 1529 1527 1527 1526 1525 1525 1524 1522 1522 1521 1520 1519 1518 1516 1515 1514 1513
1540 1540 1541 1541 1542 1542 1542 1541 1541 1541 1540 1540 1540 1540 1540 1540 1539 1537 1536 1535 1534 1534 1533 1531 1529 1529 1528 1527 1526 1525 1525 1523 1522 1521 1520 1519 1518 1517 1515 1514 1513 1512
1540 1540 1540 1541 1541 1541 1541 1541 1540 1540 1540 1539 1539 1539 1539 1539 1539 1537 1536 1535 1534 1533 1533 1531 1530 1529 1528 1527 1526 1526 1525 1523 1522 1520 1519 1518 1517 1515 1514 1513 1512 1511
1539 1540 1540 1541 1541 1541 1541 1541 1540 1539 1539 1539 1539 1539 1538 1538 1538 1537 1536 1535 1534 1533 1532 1531 1530 1529 1528 1528 1527 1526 1524 1523 1521 1519 1518 1517 1515 1514 1512 1511 1511 1510